www.pogodaiklimat.ru

Погода и климат >> Архив погоды >> Россия >> Хабаровский край >> Хабаровск


АРХИВ ПОГОДЫ в Хабаровске

Время (UTC), дата Ветер
(напр.,м/с)
 
Видим.   Явления Облачность Т
(С)
Тd
(С)
f
(%)
Тe
(С)
Тes
(С)
Комфортность P
(гПа)
Po
(гПа)
Тmin
(С)
Tmax
(С)
R
(мм)
R24
(мм)
S
(см)
15 13.09 ЮВ 3
{12}
10 км гроза без осадков {ливн. осадки} 9/6 700 м
[Cb cap Ac trans]
+14.4 +12.7 90 +13 +13 тепло 1013.0 1004.9
18 13.09 Ю 1 10 км зарница {гроза, ливн. осадки} 6/4 1000 м
[Cb cap Ac trans]
+13.0 +12.0 94 +13 +13 тепло 1012.6 1004.2
21 13.09 Ю 3 10 км в посл. час ливневой дождь {гроза} 9/3 600 м
[Cb cap Ac trans Ci fib]
+13.4 +13.3 99 +12 +12 по сезону 1013.5 1005.2 +12.7 6
00 14.09 ЮЗ 4 10 км 4/0
[Ci fib]
+17.9 +14.5 80 +18 +21 тепло 1013.3 1005.1
03 14.09 З 8 10 км 5/0
[Ac trans Ci fib]
+20.8 +13.6 63 +23 +24 комфорт 1012.7 1004.8
06 14.09 ЮЗ 9
{11}
10 км 9/3 1000 м
[Cb cap Ac trans Ci fib]
+22.5 +14.0 59 +26 +26 жарко 1012.5 1004.4
09 14.09 З 4
{11}
10 км 3/1 1000 м
[Cb cap Ci fib]
+19.4 +12.4 64 +21 +21 комфорт 1013.0 1004.8 +22.7
12 14.09 ЮЗ 2
{11}
10 км 6/0
[Ac trans Ci fib]
+14.1 +11.3 83 +14 +14 тепло 1013.9 1005.5
15 14.09 ЮЗ 2 10 км ясно +14.1 +12.1 88 +14 +14 тепло 1014.1 1005.7
18 14.09 ЮЗ 2 10 км местами туман поземный ясно +11.9 +11.4 97 +11 +11 по сезону 1013.2 1004.8
21 14.09 ЮВ 2 6000 м дымка 9/0
[Ci fib]
+9.6 +9.4 99 +8 +8 прохладно 1013.0 1004.5 +9.2
00 15.09 Ю 3 10 км 9/0
[Ac trans Ci fib]
+17.5 +15.1 86 +18 +20 тепло 1011.3 1003.1
03 15.09 Ю 5 10 км 9/0
[Ac trans Ci fib]
+21.8 +15.2 66 +25 +29 комфорт 1007.6 999.6
06 15.09 ЮЗ 6 10 км 9/3 1000 м
[Cb cap Ac trans]
+23.0 +14.5 59 +27 +27 душно 1006.0 997.9
09 15.09 ЮЗ 8
{13}
10 км слабый ливневой дождь {гроза} 10/4 1000 м
[Cb cap Ac As]
+17.3 +14.2 82 +16 +16 тепло 1006.2 998.0 +23.0 8
12 15.09 ЮЗ 7
{13}
10 км {гроза, ливн. осадки} 9/6 240 м
[Cb cap Ac trans]
+16.2 +15.3 94 +15 +15 тепло 1007.2 999.0
15 15.09 ЮЗ 5 10 км 6/0
[Ac trans]
+15.0 +14.1 94 +13 +13 тепло 1008.6 1000.3
18 15.09 ЮЗ 5 10 км ясно +11.4 +10.0 91 +9 +9 по сезону 1008.7 1000.3
21 15.09 ЮЗ 6 10 км 3/0
[Ac trans]
+10.7 +7.3 79 +8 +8 прохладно 1008.8 1000.4 +9.9 0.0
00 16.09 ЮЗ 7-12
{13}
10 км 4/0
[Ac trans]
+15.3 +7.3 59 +14 +15 по сезону 1007.7 999.4
03 16.09 ЮЗ 9-13
{16}
10 км ясно +18.2 +7.9 51 +17 +18 тепло 1005.2 997.0
06 16.09 ЮЗ 12-15
{16}
10 км 5/4 1000 м
[Cb cap Ac trans]
+19.4 +6.8 44 +19 +19 тепло 1003.1 995.2
09 16.09 ЮЗ 6
{16}
10 км 8/3 600 м
[Cb cap Ac trans]
+17.1 +7.2 52 +16 +16 тепло 1004.1 995.9 +19.9
12 16.09 СЗ 7-10
{17}
10 км слабый ливневой дождь 8/4 600 м
[Cb cap Ac trans]
+12.4 +9.1 80 +10 +10 по сезону 1005.6 997.6
15 16.09 ЮЗ 3 10 км {ливн. осадки} 8/3 600 м
[Cb cap Ac trans]
+10.2 +7.5 83 +8 +8 по сезону 1006.0 997.6
18 16.09 ЮЗ 3 10 км {ливн. осадки} 9/0
[Ac trans]
+9.3 +8.5 95 +7 +7 по сезону 1005.9 997.7
21 16.09 З 4 10 км 9/0
[Ac trans]
+11.3 +6.1 70 +9 +9 по сезону 1005.9 997.7 +7.8 10
00 17.09 З 5 10 км 9/0
[Ac trans]
+12.4 +6.0 65 +10 +11 по сезону 1006.0 997.9
03 17.09 ЮЗ 5 10 км 9/3 1000 м
[Sc Ac trans]
+15.0 +5.6 53 +14 +16 по сезону 1005.5 997.2
06 17.09 З 8
{13}
10 км 9/4 1000 м
[Sc Ac trans]
+16.7 +5.2 47 +15 +16 по сезону 1005.1 997.1
09 17.09 З 5
{12}
10 км 9/0
[Ac trans]
+14.7 +7.1 60 +13 +13 по сезону 1006.5 998.2 +17.1
12 17.09 З 5
{12}
10 км 4/3 300 м
[St Ac trans]
+12.4 +6.1 65 +10 +10 по сезону 1007.8 999.6
15 17.09 З 6 10 км 4/0
[Ac trans Ci fib]
+10.8 +5.7 71 +8 +8 по сезону 1007.7 999.3
18 17.09 З 6
{10}
10 км ясно +9.7 +5.6 76 +6 +6 по сезону 1007.8 999.7
21 17.09 З 6 10 км 4/0
[Ac trans]
+9.1 +5.7 79 +5 +5 холодно 1008.0 999.7 +9.0
00 18.09 З 7 10 км 1/0
[Ac trans]
+14.2 +7.0 62 +12 +13 по сезону 1008.1 999.9
03 18.09 З 8-12
{13}
10 км 1/0
[Ac trans]
+18.2 +5.2 42 +17 +19 тепло 1007.0 998.9
06 18.09 З 7
{13}
10 км 9/6 1000 м
[Cb cap Ac trans]
+18.0 +3.4 38 +17 +18 по сезону 1006.3 998.0
09 18.09 З 3
{11}
10 км 5/3 600 м
[Cb cap Ac trans]
+16.6 +4.1 43 +16 +16 тепло 1006.7 998.4 +19.5
12 18.09 З 6
{11}
10 км 4/0
[Ac trans]
+13.9 +3.7 50 +12 +12 по сезону 1007.7 999.4
15 18.09 З 5 10 км 3/3 1500 м
[Sc]
+11.0 +4.4 64 +8 +8 по сезону 1008.4 1000.0
18 18.09 З 4 10 км ясно +9.3 +4.2 70 +7 +7 по сезону 1009.3 1000.8
21 18.09 ЮЗ 3 10 км ясно +6.9 +4.1 82 +4 +4 холодно 1009.8 1001.3 +5.8
00 19.09 З 7-10
{11}
10 км ясно +13.2 +4.4 55 +11 +12 по сезону 1010.0 1001.6
03 19.09 З 9-15
{15}
10 км 3/3 600 м
[Cu med, cong]
+17.2 +2.6 38 +16 +17 тепло 1009.4 1001.1
06 19.09 З 6
{15}
10 км 3/0
[Ac trans]
+17.6 +2.8 37 +17 +18 по сезону 1008.6 1000.6
09 19.09 З 4
{11}
10 км 4/1 600 м
[Sc Ac trans]
+15.9 +1.6 38 +15 +15 тепло 1008.9 1000.6 +18.9
12 19.09 З 4
{11}
10 км ясно +12.3 +2.9 53 +11 +11 по сезону 1009.9 1001.5
15 19.09 З 4 10 км ясно +10.5 +2.9 59 +8 +8 по сезону 1010.7 1002.2
18 19.09 З 4 10 км 9/0
[Ci fib]
+9.3 +2.7 63 +7 +7 по сезону 1011.1 1002.6
21 19.09 ЮЗ 3 10 км 3/0
[Ci fib]
+7.0 +2.8 75 +4 +4 холодно 1011.8 1003.2 +6.4
00 20.09 З 4 10 км 9/0
[Ac trans Ci fib]
+12.1 +4.0 58 +10 +12 по сезону 1012.6 1004.1
03 20.09 З 4 10 км ясно +17.7 +2.9 37 +17 +24 тепло 1012.2 1004.0
06 20.09 З 5 10 км ясно +19.7 +1.2 29 +20 +22 тепло 1011.8 1003.6
09 20.09 З 5
{10}
10 км 6/0
[Ac trans]
+17.1 +3.5 40 +16 +16 тепло 1012.3 1004.0 +20.3
12 20.09 З 4
{10}
10 км 8/0
[Ac trans]
+13.8 +5.9 59 +12 +12 тепло 1013.7 1005.4

 

Местоположение метеостанции Хабаровск (Хабаровский край, Россия): широта 48.52 долгота 135.10 высота над уровнем моря 76 м.

В архиве по умолчанию представлена погода в Хабаровске за последнюю неделю. Архивные данные за месяц целиком и за предыдущие месяцы, начиная с января 2011 года, Вы можете получить, выбрав интересующий диапазон дат из раскрывающегося списка и нажав кнопку "Ввод!".


*Определитесь, кто Вы:
робот инопланетянин человек

Внимание! Время в таблицах - всемирное. Для получения местного времени необходимо прибавить поправку, которая в Хабаровске равна 10 ч.

Смотрите также архив погоды в соседних городах и на ближайших метеорологических станциях:

Погода в Хабаровске АМС (Хабаровский край, Россия) (6 км)
Погода в Хабаровск Мосту (Хабаровский край, Россия) (6 км)
Погода в Хабаровске Аэр. Большой (Хабаровский край, Россия) (8 км)
Погода в Хабаровске 21 км (Хабаровский край, Россия) (19 км)
Погода в Князе-Волконском (Хабаровский край, Россия) (28 км)
Погода в Бычихе (Хабаровский край, Россия) (32 км)
Погода в Елабуге (Хабаровский край, Россия) (61 км)
Погода в Оборе (Хабаровский край, Россия) (62 км)
Погода в Георгиевке (Хабаровский край, Россия) (64 км)
Погода в Хоре (Хабаровский край, Россия) (73 км)

Пояснения к столбцам:

Ветер - указаны скорость ветра в м/с - средняя за 10 мин, порывы в срок и между сроками (в фигурных скобках) и направление, откуда дует ветер: С - северный, СВ - северо-восточный, В - восточный, ЮВ - юго-восточный, Ю - южный, ЮЗ - юго-западный, З - западный, СЗ - северо-западный.
Видимость - горизонтальная дальность видимости в метрах или километрах. При видимости от 1 до 10 км при отсутствии осадков обычно наблюдается дымка, при ухудшении видимости до 1 км и менее - туман. В сухую погоду видимость может ухудшаться дымом, пылью или мглою.
Явления - указаны атмосферные явления, наблюдавшиеся в срок или в последний час перед сроком; фигурными скобками обозначены явления, наблюдавшиеся между сроками (за 1-3 часа до срока); квадратными скобками обозначены град или гололедные отложения с указанием их диаметра в мм.
Облачность - указаны через наклонную черту общая и нижняя облачность в баллах и высота нижней границы облаков в метрах; квадратными скобками обозначены формы облаков: Ci - перистые, Cs - перисто-слоистые, Cc - перисто-кучевые, Ac - высококучевые, As - высокослоистые, Sc - слоисто-кучевые, Ns - слоисто-дождевые, Cu - кучевые, Cb - кучево-дождевые. Подробнее классификацию облаков см. в Атласе облаков (PDF).
T - Температура воздуха - температура, измеренная на высоте 2 м над землей.
Td - Температура точки росы - температура, при понижении до которой содержащийся в воздухе водяной пар достигнет насыщения.
f - Относительная влажность воздуха - влажноcть воздуха, измеренная на высоте 2 м над землей.
Te - Эффективная температура - температура, которую ощущает одетый по сезону человек в тени. Характеристика душности погоды. При расчете учитывается влияние влажности воздуха и скорости ветра на теплоощущения человека.
Tes - Эффективная температура на солнце - температура, которую ощущает человек, с поправкой на солнечный нагрев. Характеристика знойности погоды. Зависит от высоты солнца над горизонтом, облачности и скорости ветра. Ночью, в пасмурную погоду, а также при ветре 12 м/с и более поправка равна нулю.
P - Атмосферное давление - приведенное к уровню моря атмосферное давление.
Po - Атмосферное давление - измеренное на уровне метеостанции атмосферное давление.
Tmin - Минимальная температура - минимум температуры воздуха на высоте 2 м над землей.
Tmax - Максимальная температура - максимум температуры воздуха на высоте 2 м над землей.
R - Количество осадков - Количество выпавших осадков за период времени, мм. При наведении курсора мыши на число - период времени, за который выпало указанное количество осадков.
R24 - Количество осадков - Количество выпавших осадков за 24 часа, мм.
S - Снежный покров - Высота снежного покрова, см. При наведении курсора мыши на число - состояние снежного покрова и степень покрытия местности в баллах.